Home > Time Zones > World Clock > Weather > U.S.A. > Nome > Past weeks

Flag for U.S.A. Weather past 2 weeks in Nome, Alaska, U.S.A.

Now
51 °F

Light rain. Fog.


Feels Like: 45 °F
Forecast: 40 / 53 °F
Wind: 22 mph from Southwest

Location: Nome Airport

Current Time: Aug 31, 2014 at 11:32:43 PM

Latest Report: Aug 31, 2014 at 10:53 PM


Visibility: 4 mi

Pressure: 29.60 "Hg

Humidity: 100%

Dew point: 51 °F

Location of NomeLocation

Historic Weather in Nome — Graph

°F

Nome temperature yesterday

Maximum temperature yesterday: 49 °F (at 7:53 PM)
Minimum temperature yesterday: 32 °F (at 4:53 AM)
Average temperature yesterday: 42 °F

Past Weeks' High & Low Weather Summary

 TemperatureHumidityPressure
High69 °F (Aug 24, 4:53 PM)100% (Aug 18, 6:53 AM)30.26 "Hg (Aug 18, 6:53 AM)
Low32 °F (Aug 30, 4:53 AM)31% (Aug 24, 4:53 PM)29.44 "Hg (Aug 16, 10:53 PM)
Average52 °F78%29.86 "Hg
* Reported Aug 16 9:53 PM — Aug 31 9:53 PM, Nome, Weather by CustomWeather, © 2014

Note: Actual official high and low records may vary slightly from our data, if they occured in-between our weather recording intervals... More about our weather records

Advertising

Nome weather history for previous 24 hours

 ConditionsComfort  
Time TempWeatherWind HumidityBarometerVisibility
9:53 PM
Aug 31
51 °FLight rain. Fog.24 mph100%29.63 "Hg5 mi
8:53 PM51 °FLight rain. Fog.20 mph96%29.66 "Hg4 mi
7:53 PM51 °FLight rain. Fog.24 mph96%29.68 "Hg2 mi
6:53 PM51 °FLight rain. Mostly cloudy.22 mph92%29.70 "Hg9 mi
5:53 PM51 °FMostly cloudy.24 mph89%29.72 "Hg9 mi
4:53 PM51 °FLight rain. Mostly cloudy.20 mph86%29.74 "Hg10 mi
3:53 PM51 °FMore clouds than sun.18 mph80%29.75 "Hg10 mi
2:53 PM50 °FMostly cloudy.20 mph74%29.76 "Hg10 mi
1:53 PM50 °FMore clouds than sun.10 mph68%29.77 "Hg10 mi
12:53 PM49 °FLight rain. Mostly cloudy.16 mph77%29.76 "Hg7 mi
11:53 AM50 °FMostly cloudy.16 mph83%29.76 "Hg10 mi
11:01 AM50 °FMostly cloudy.15 mph83%29.76 "Hg10 mi
9:53 AM50 °FMore clouds than sun.14 mph74%29.76 "Hg10 mi
8:53 AM49 °FBroken clouds.13 mph80%29.76 "Hg10 mi
7:53 AM47 °FPartly cloudy.12 mph80%29.76 "Hg10 mi
6:53 AM40 °FPartly cloudy.5 mph89%29.76 "Hg10 mi
5:53 AM39 °FPassing clouds.No wind96%29.77 "Hg10 mi
4:53 AM41 °FPassing clouds.5 mph89%29.77 "Hg10 mi
3:53 AM41 °FPassing clouds.5 mph89%29.77 "Hg10 mi
2:53 AM39 °FPassing clouds.5 mph89%29.76 "Hg10 mi
1:53 AM39 °FPassing clouds.3 mph93%29.75 "Hg10 mi
12:53 AM40 °FPassing clouds.No wind89%29.73 "Hg10 mi
11:53 PM
Aug 30
41 °FPartly cloudy.7 mph93%29.72 "Hg10 mi
Weather by CustomWeather, © 2014

See weather overviewHow to use our weather pages